UITMSAT-2

Last updated on Wed Aug 26 2026 00:02:34 GMT+0000 (Coordinated Universal Time)

1 67686U 98067YC 26237.20992099 .00142174 00000+0 82863-3 0 9991 2 67686 51.6243 299.6473 0008142 37.2990 322.8574 15.77440963 31158
UTC large
Height (km)
Speed (km/s)
/
Latitude / Longitude
Inclination (degrees)
Orbital Period (minutes)
Azimuth
Elevation
Range (km)
Doppler Factor

Next 0 passes for location: London (51.5072 / 0.1276)

No passes found over London.
UITMSAT-2